Location: Unspecified
(48.5539°N, 71.6350°W)
Time: 23:33:44
(UTC-04:00)

ISS - Pass Details

Date: 26 May 2019
Orbit: 408 x 418 km, 51.6° (Epoch: 17 June)

Event Time Altitude Azimuth Distance (km) Brightness Sun altitude
Rises 21:09:30 0° 274° (W) 2,351 1.0 -5.5°
Reaches altitude 10° 21:11:38 10° 280° (W) 1,491 0.1 -5.7°
Maximum altitude 21:14:53 48° 356° (N) 555 -2.7 -6.1°
Drops below altitude 10° 21:18:10 10° 72° (ENE) 1,499 -1.2 -6.5°
Sets 21:20:19 0° 79° (ENE) 2,364 -0.3 -6.8°
